Regional Weather Roundup
Issued by NWS Upton, NY

Current Version | Previous Version | Text Only | Print | Product List | Glossary Off
Versions: 1 2 3 4 5 6 7 8 9 10 11 12 13 14 15 16 17 18 19 20 21 22 23 24 25 26 27
000 ASUS41 KOKX 271105 RWROKX REGIONAL WEATHER ROUNDUP NATIONAL WEATHER SERVICE NEW YORK NY 700 AM EDT FRI MAY 27 2016 NOTE: "FAIR" INDICATES FEW OR NO CLOUDS BELOW 12,000 FEET WITH NO SIGNIFICANT WEATHER AND/OR OBSTRUCTIONS TO VISIBILITY. NYZ071-072-176-178-NJZ106-104-271200- NEW YORK CITY METRO AREA CITY SKY/WX TMP DP RH WIND PRES REMARKS CENTRAL PARK CLOUDY 75 61 61 CALM 30.08F LAGUARDIA APRT CLOUDY 73 65 75 S6 30.05F KENNEDY INTL CLOUDY 67 62 84 CALM 30.08S NEWARK/LIBERTY CLOUDY 72 61 68 VRB3 30.05F BRNX BOT. GARD N/A 68 59 73 NE1 30.06S TETERBORO PTSUNNY 73 58 59 S3 30.04F $$ NYZ177-179-078>081-271200- LONG ISLAND NEW YORK CITY SKY/WX TMP DP RH WIND PRES REMARKS FARMINGDALE SUNNY 66 61 84 S5 30.08S ISLIP MOSUNNY 65 61 87 S6 30.08S SHIRLEY SUNNY 64 60 87 S6 30.09S RIVERHEAD N/A 64 61 88 CALM 30.08S WESTHAMPTON SUNNY 62 58 86 S5 30.11S EAST HAMPTON FAIR 60 57 92 CALM 30.10S MONTAUK POINT N/A 60 58 92 S5 30.11S $$ NYZ052-065-067-271200- HUDSON VALLEY CITY SKY/WX TMP DP RH WIND PRES REMARKS WHITE PLAINS CLOUDY 66 57 72 CALM 30.07S NEWBURGH NOT AVBL MONTGOMERY CLOUDY 66 60 81 CALM 30.05S POUGHKEEPSIE CLOUDY 68 59 73 CALM 30.04S ALBANY PTSUNNY 72 52 49 S9 30.02S $$ NJZ001-105-106-008-010-013-015-019>022-104-271200- NEW JERSEY CITY SKY/WX TMP DP RH WIND PRES REMARKS NEWARK/LIBERTY CLOUDY 72 61 68 VRB3 30.05F TETERBORO PTSUNNY 73 58 59 S3 30.04F CALDWELL CLOUDY 69 63 81 W3 30.06S MORRISTOWN CLOUDY 66 63 88 CALM 30.06S SOMERVILLE PTSUNNY 66 63 90 CALM 30.05R FOG SUSSEX CLOUDY 67 64 90 CALM 30.06R ANDOVER N/A 67 65 93 CALM 30.07R TRENTON SUNNY 68 61 78 SW3 30.07R MILLVILLE MOSUNNY 70 64 81 CALM 30.08S ATLANTIC CITY MOSUNNY 69 63 81 S7 30.08F WRIGHTSTOWN MOSUNNY 65 63 91 SE2 30.06R TOMS RIVER SUNNY 66 61 82 N3 30.09R BELMAR CLOUDY 69 63 81 SE3 30.09S $$ PAZ047>061-062-071-271200- EASTERN PENNSYLVANIA CITY SKY/WX TMP DP RH WIND PRES REMARKS PHILADELPHIA MOSUNNY 71 63 75 S5 30.07R ALLENTOWN CLOUDY 69 67 93 CALM 30.07R FOG SCRANTON CLOUDY 70 64 81 CALM 30.07R $$ CTZ002-004>006-009-010-012-RIZ004-006-007-MAZ004-011-015-271200- SOUTHERN NEW ENGLAND IN CT CITY SKY/WX TMP DP RH WIND PRES REMARKS BRADLEY INTL CLOUDY 66 55 67 S7 30.06S HARTFORD SUNNY 67 57 70 VRB5 30.08R DANBURY CLOUDY 66 56 70 CALM 30.09S WTRBRY/OXFORD MOSUNNY 63 55 77 CALM 30.10S BRIDGEPORT PTSUNNY 64 59 83 E6 30.08S MERIDEN SUNNY 63 57 81 CALM 30.08S NEW HAVEN MOSUNNY 63 59 87 SE5 30.08S CHESTER FAIR 59 57 94 CALM 30.10S FOG GROTON MOSUNNY 59 58 96 SE3 30.10S WILLIMANTIC PTSUNNY 63 55 75 CALM 30.10R IN RI CITY SKY/WX TMP DP RH WIND PRES REMARKS PROVIDENCE PTSUNNY 60 57 89 S7 30.12R BLOCK ISLAND SUNNY 60 57 89 S14 30.11S WESTERLY MOSUNNY 59 56 89 CALM 30.11S FOG IN MA CITY SKY/WX TMP DP RH WIND PRES REMARKS BOSTON CLOUDY 61 56 83 NE5 30.11S WORCESTER MOSUNNY 59 55 87 CALM 30.12R WESTFIELD CLOUDY 65 56 72 S3 30.06F PROVINCETOWN CLOUDY 60 57 89 SE9 30.12F NANTUCKET FOG 58 57 97 S8 30.14S VSB 1/4 $$ ANZ330-335-338-340-345-350-353-355-271200- COASTAL MARINE OBSERVATIONS STATION/POSITION TIME SKY/WX TEMP WIND PRES VSBY WAVE AIR SEA DIR/SP/G HT/PER (UTC) (F) (DEG/KT/KT) (MB) (MI) (FT/S) NY HARB ENTRANCE 0950 62 60 180/ 6/ 8 1018.4 2/ 7 20S FIRE ISLAND 0950 60 59 210/ 10/ 10 1018.7 3/ 4 GREAT SOUTH BAY 1000 63 67 200/ 6/ 8 N/A 23 SSW MONTAUK P 1050 59 56 210/ 10/ 12 1019.0 2/ 8 15 E BARNEGAT LI NOT AVBL HUDSON CANYON 0950 59 56 1019.8 3/ 8 KINGS POINT 1000 64 58 1017.9 EXECUTION ROCKS NOT AVBL CENTRAL LI SOUND 1000 60 160/ 6/ 6 N/A 0 EASTERN LI SOUND 1000 55 52 140/ 4/ 4 N/A ROBBINS REEF 1000 67 170/ 11/ 11 1017.2 $$ >>>>>>>>>>>>>>>>>>>>>>>>>>>> KEY <<<<<<<<<<<<<<<<<<<<<<<<<<< > < > SKY/WX - SKY CONDITION/PRESENT WEATHER < > TMP - TEMPERATURE IN FAHRENHEIT < > DP - DEWPOINT IN FAHRENHEIT < > RH - RELATIVE HUMIDITY IN PERCENT < > WIND - DIRECTION AND SPEED IN MPH < > PRES - MEAN SEA LEVEL PRESSURE IN INCHES OF HG < > WCI - WIND CHILL INDEX < > VSB - VISIBILITY IN MILES < > HX - HEAT INDEX < > TC - TEMPERATURE IN CELSIUS < > VRB - VARIABLE WIND DIRECTION < > < >>>>>>>>>>>>>>>>>>>>>>>>>>>> KEY <<<<<<<<<<<<<<<<<<<<<<<<<<<

USA.gov is the U.S. government's official web portal to all federal, state and local government web resources and services.